Grand Marais Airport, MN

7:53 AM CDT on April 24, 2017 (GMT -0500)
Grand Marais-Cook County

Weather History for KCKC - November, 2013

Change the Weather History Date:

Friday, November 29, 2013

  Actual Average Record
Temperature  
Mean Temperature 11 °F -  
Max Temperature 21 °F 27 °F 44 °F (1998)
Min Temperature 1 °F 15 °F 0 °F (2007)
Degree Days  
Heating Degree Days 54    
Moisture  
Dew Point 9 °F    
Average Humidity 81    
Maximum Humidity 93    
Minimum Humidity 72    
Precipitation  
Precipitation 0.00 in - - ()
Sea Level Pressure  
Sea Level Pressure 30.32 in    
Wind  
Wind Speed 6 mph (ESE)    
Max Wind Speed 13 mph    
Max Gust Speed 21 mph    
Visibility 9 miles    
Events Snow    
Averages and records for this station are not official NWS values.
T = Trace of Precipitation, MM = Missing Value Source: NWS Daily Summary

Daily Weather History Graph

Daily Weather History Graph

Search for Another Location

Airport or City:

Trip Planner

Search our weather history database for the weather conditions in past years. The results will help you decide how hot, cold, wet, or windy it might be!

Date:

Astronomy

Nov. 29, 2013 Rise Set
Actual Time 7:27 AM CST 4:12 PM CST
Civil Twilight 6:52 AM CST 4:47 PM CST
Nautical Twilight 6:13 AM CST 5:26 PM CST
Astronomical Twilight 5:36 AM CST 6:03 PM CST
Moon 3:18 AM CST (11/29) 2:09 PM CST (11/29)
Length of Visible Light 9h 55m
Length of Day
8h 44m
Waning Crescent, 14% of the Moon is Illuminated
Nov 29
Waning Crescent
Dec 2
New
Dec 9
First Quarter
Dec 17
Full
Dec 25
Last Quarter

Hourly Weather History & Observations

Time (CST) Temp. Windchill Dew Point Humidity Pressure Visibility Wind Dir Wind Speed Gust Speed Precip Events Conditions
12:13 AM 6.8 °F -4.8 °F 1.4 °F 79% 30.39 in 10.0 mi NNW 6.9 mph - N/A   Scattered Clouds
12:33 AM 6.8 °F -3.5 °F 1.4 °F 79% 30.39 in 10.0 mi North 5.8 mph - N/A   Mostly Cloudy
12:53 AM 6.8 °F -4.8 °F 1.4 °F 79% 30.39 in 10.0 mi NNW 6.9 mph - N/A   Mostly Cloudy
1:14 AM 6.8 °F -3.5 °F 1.4 °F 79% 30.39 in 10.0 mi North 5.8 mph - N/A   Overcast
1:33 AM 6.8 °F -4.8 °F -0.4 °F 72% 30.39 in 10.0 mi North 6.9 mph - N/A   Mostly Cloudy
1:53 AM 5.0 °F -6.9 °F -0.4 °F 78% 30.40 in 10.0 mi North 6.9 mph - N/A Snow Light Snow
2:14 AM 5.0 °F -5.6 °F -0.4 °F 78% 30.40 in 10.0 mi North 5.8 mph - N/A   Scattered Clouds
2:33 AM 3.2 °F -7.8 °F -0.4 °F 85% 30.41 in 10.0 mi North 5.8 mph - N/A   Clear
2:53 AM 3.2 °F -6.2 °F -0.4 °F 85% 30.41 in 10.0 mi North 4.6 mph - N/A   Clear
3:13 AM 3.2 °F -6.2 °F -0.4 °F 85% 30.41 in 10.0 mi North 4.6 mph - N/A   Mostly Cloudy
3:34 AM 3.2 °F -6.2 °F -2.2 °F 78% 30.41 in 10.0 mi North 4.6 mph - N/A   Scattered Clouds
3:53 AM 1.4 °F - -2.2 °F 85% 30.41 in 10.0 mi Calm Calm - N/A   Mostly Cloudy
4:13 AM 3.2 °F -4.2 °F -2.2 °F 78% 30.41 in 10.0 mi North 3.5 mph - N/A   Overcast
4:34 AM 3.2 °F -4.2 °F -2.2 °F 78% 30.41 in 10.0 mi North 3.5 mph - N/A Snow Light Snow
4:54 AM 1.4 °F -9.9 °F -2.2 °F 85% 30.41 in 7.0 mi North 5.8 mph - N/A Snow Light Snow
5:13 AM 3.2 °F -7.8 °F -2.2 °F 78% 30.41 in 10.0 mi North 5.8 mph - N/A Snow Light Snow
5:33 AM 1.4 °F -8.3 °F -4.0 °F 78% 30.42 in 10.0 mi North 4.6 mph - N/A Snow Light Snow
5:54 AM 1.4 °F -8.3 °F -2.2 °F 85% 30.42 in 10.0 mi North 4.6 mph - N/A   Overcast
6:13 AM 1.4 °F -8.3 °F -2.2 °F 85% 30.42 in 7.0 mi North 4.6 mph - N/A Snow Light Snow
6:33 AM 3.2 °F -6.2 °F -0.4 °F 85% 30.43 in 10.0 mi North 4.6 mph - N/A Snow Light Snow
6:54 AM 5.0 °F -2.1 °F -0.4 °F 78% 30.43 in 7.0 mi North 3.5 mph - N/A Snow Light Snow
7:13 AM 6.8 °F - 1.4 °F 79% 30.43 in 7.0 mi Calm Calm - N/A Snow Light Snow
7:33 AM 6.8 °F -0.1 °F 1.4 °F 79% 30.43 in 7.0 mi North 3.5 mph - N/A Snow Light Snow
7:54 AM 8.6 °F 2.0 °F 1.4 °F 73% 30.44 in 7.0 mi North 3.5 mph - N/A Snow Light Snow
8:13 AM 8.6 °F 0.1 °F 3.2 °F 79% 30.44 in 4.0 mi NNE 4.6 mph - N/A Snow Light Snow
8:34 AM 8.6 °F 2.0 °F 3.2 °F 79% 30.43 in 10.0 mi NNE 3.5 mph - N/A Snow Light Snow
8:53 AM 10.4 °F 4.0 °F 3.2 °F 73% 30.44 in 4.0 mi North 3.5 mph - N/A Snow Light Snow
9:13 AM 10.4 °F - 5.0 °F 79% 30.43 in 5.0 mi Calm Calm - N/A Snow Light Snow
9:34 AM 12.2 °F - 6.8 °F 79% 30.43 in 5.0 mi Calm Calm - N/A Snow Light Snow
9:53 AM 12.2 °F - 6.8 °F 79% 30.43 in 7.0 mi Calm Calm - N/A Snow Light Snow
10:13 AM 12.2 °F 6.1 °F 6.8 °F 79% 30.43 in 10.0 mi NNE 3.5 mph - N/A Snow Light Snow
10:34 AM 14.0 °F - 8.6 °F 79% 30.42 in 10.0 mi Calm Calm - N/A Snow Light Snow
10:53 AM 15.8 °F 7.2 °F 8.6 °F 73% 30.41 in 10.0 mi ENE 5.8 mph - N/A   Overcast
11:13 AM 15.8 °F 7.2 °F 10.4 °F 79% 30.40 in 10.0 mi East 5.8 mph - N/A   Overcast
11:34 AM 15.8 °F 7.2 °F 12.2 °F 86% 30.39 in 10.0 mi East 5.8 mph - N/A   Overcast
11:53 AM 17.6 °F 7.3 °F 12.2 °F 79% 30.38 in 7.0 mi East 8.1 mph - N/A   Overcast
12:13 PM 17.6 °F 6.4 °F 14.0 °F 86% 30.37 in 5.0 mi East 9.2 mph - N/A Snow Light Snow
12:34 PM 19.4 °F 8.6 °F 15.8 °F 86% 30.36 in 3.0 mi East 9.2 mph - N/A Snow Light Snow
12:53 PM 19.4 °F 11.5 °F 15.8 °F 86% 30.35 in 3.0 mi East 5.8 mph - N/A Snow Light Snow
1:13 PM 19.4 °F 9.5 °F 15.8 °F 86% 30.34 in 3.0 mi ESE 8.1 mph - N/A Snow Light Snow
1:34 PM 19.4 °F 11.5 °F 15.8 °F 86% 30.32 in 10.0 mi East 5.8 mph - N/A   Overcast
1:53 PM 19.4 °F 8.6 °F 17.6 °F 93% 30.32 in 4.0 mi ESE 9.2 mph - N/A Snow Light Snow
2:13 PM 21.2 °F 12.6 °F 17.6 °F 86% 30.31 in 4.0 mi SSE 6.9 mph - N/A Snow Light Snow
2:33 PM 21.2 °F 11.7 °F 17.6 °F 86% 30.31 in 10.0 mi South 8.1 mph - N/A   Overcast
2:54 PM 21.2 °F 13.6 °F 17.6 °F 86% 30.30 in 10.0 mi South 5.8 mph - N/A   Overcast
3:13 PM 21.2 °F 12.6 °F 15.8 °F 80% 30.30 in 10.0 mi South 6.9 mph - N/A   Overcast
3:34 PM 21.2 °F 11.7 °F 15.8 °F 80% 30.28 in 10.0 mi SSE 8.1 mph - N/A   Overcast
3:54 PM 21.2 °F 11.7 °F 15.8 °F 80% 30.27 in 10.0 mi SSE 8.1 mph - N/A   Overcast
4:13 PM 19.4 °F 8.6 °F 15.8 °F 86% 30.27 in 10.0 mi SSE 9.2 mph - N/A   Overcast
4:33 PM 19.4 °F 10.4 °F 15.8 °F 86% 30.25 in 10.0 mi SSE 6.9 mph - N/A   Overcast
4:54 PM 21.2 °F 12.6 °F 15.8 °F 80% 30.25 in 10.0 mi SSE 6.9 mph - N/A   Overcast
5:13 PM 21.2 °F 12.6 °F 15.8 °F 80% 30.24 in 10.0 mi SSE 6.9 mph - N/A   Overcast
5:33 PM 21.2 °F 11.7 °F 15.8 °F 80% 30.23 in 10.0 mi SSE 8.1 mph - N/A   Overcast
5:54 PM 21.2 °F 10.9 °F 15.8 °F 80% 30.22 in 10.0 mi SSE 9.2 mph - N/A   Overcast
6:13 PM 21.2 °F 12.6 °F 17.6 °F 86% 30.21 in 10.0 mi SSE 6.9 mph 16.1 mph N/A   Overcast
6:34 PM 21.2 °F 10.1 °F 15.8 °F 80% 30.20 in 10.0 mi SSE 10.4 mph 17.3 mph N/A   Overcast
6:53 PM 21.2 °F 9.5 °F 15.8 °F 80% 30.19 in 10.0 mi SSE 11.5 mph 18.4 mph N/A   Overcast
7:13 PM 21.2 °F 10.9 °F 15.8 °F 80% 30.18 in 10.0 mi SSE 9.2 mph 16.1 mph N/A   Overcast
7:34 PM 21.2 °F 8.9 °F 15.8 °F 80% 30.18 in 10.0 mi South 12.7 mph 18.4 mph N/A   Overcast
7:53 PM 21.2 °F 10.1 °F 15.8 °F 80% 30.18 in 10.0 mi South 10.4 mph 20.7 mph N/A   Overcast
8:14 PM 21.2 °F 10.9 °F 15.8 °F 80% 30.18 in 10.0 mi South 9.2 mph - N/A   Overcast
8:34 PM 21.2 °F 10.1 °F 15.8 °F 80% 30.16 in 10.0 mi South 10.4 mph - N/A   Overcast
8:53 PM 21.2 °F 9.5 °F 15.8 °F 80% 30.15 in 10.0 mi South 11.5 mph 19.6 mph N/A   Overcast
9:14 PM 21.2 °F 11.7 °F 15.8 °F 80% 30.15 in 10.0 mi South 8.1 mph - N/A   Overcast
9:33 PM 21.2 °F 10.9 °F 15.8 °F 80% 30.15 in 10.0 mi South 9.2 mph - N/A   Overcast
9:53 PM 21.2 °F 11.7 °F 15.8 °F 80% 30.14 in 10.0 mi South 8.1 mph - N/A   Overcast
10:13 PM 21.2 °F 11.7 °F 15.8 °F 80% 30.14 in 10.0 mi South 8.1 mph - N/A   Overcast
10:33 PM 21.2 °F 11.7 °F 15.8 °F 80% 30.13 in 10.0 mi South 8.1 mph - N/A   Overcast
10:54 PM 21.2 °F 11.7 °F 17.6 °F 86% 30.13 in 10.0 mi South 8.1 mph - N/A   Overcast
11:13 PM 21.2 °F 10.1 °F 17.6 °F 86% 30.13 in 7.0 mi South 10.4 mph 17.3 mph N/A   Overcast
11:33 PM 21.2 °F 10.1 °F 17.6 °F 86% 30.12 in 2.5 mi South 10.4 mph 19.6 mph N/A   Overcast
11:54 PM 21.2 °F 10.9 °F 17.6 °F 86% 30.10 in 2.5 mi South 9.2 mph - N/A   Overcast